QPF
0.00 0.00 0.00 0.00 0.00 0.00 0.00 0.00 0.00 0.00 0.00 0.00 0.00 0.00 0.00 0.00 0.00 0.00 0.00 0.00 0.00 0.00 0.00 0.00 0.00 0.00 0.00 0.00 0.00 0.00 0.00 0.00 0.01 0.01 0.00 0.00 0.00 0.00 0.00 0.00 0.00 0.00 0.00 0.00
0.00 0.00 0.00 0.00 0.00 0.00 0.00 0.00 0.00 0.00 0.00 0.00 0.00 0.00 0.00 0.00 0.00 0.00 0.00 0.01 0.00 0.00 0.00 0.00 0.00 0.00 0.00 0.00 0.00 0.00 0.00 0.00 0.01 0.02 0.01 0.00 0.00 0.00 0.00 0.00 0.00 0.00 0.00 0.00
0.00 0.00 0.00 0.00 0.00 0.00 0.00 0.00 0.00 0.00 0.00 0.00 0.00 0.00 0.00 0.00 0.00 0.00 0.00 0.00 0.00 0.00 0.00 0.00 0.00 0.00 0.00 0.00 0.00 0.00 0.00 0.00 0.00 0.01 0.00 0.00 0.00 0.00 0.00 0.00 0.00 0.00 0.00 0.00
0.00 0.00 0.00 0.00 0.00 0.00 0.00 0.00 0.00 0.00 0.00 0.00 0.00 0.00 0.00 0.00 0.00 0.00 0.00 0.00 0.00 0.00 0.00 0.00 0.00 0.00 0.00 0.00 0.00 0.00 0.00 0.00 0.00 0.00 0.00 0.00 0.00 0.00 0.00 0.00 0.00 0.00 0.00 0.00
0.00 0.00 0.00 0.00 0.00 0.00 0.00 0.00 0.00 0.00 0.00 0.00 0.00 0.00 0.00 0.00 0.00 0.00 0.00 0.00 0.00 0.00 0.00 0.00 0.00 0.00 0.00 0.00 0.00 0.00 0.00 0.00 0.00 0.00 0.00 0.00 0.00 0.00 0.00 0.00 0.00 0.00 0.00 0.00
0.00 0.00 0.00 0.00 0.00 0.00 0.00 0.00 0.00 0.00 0.00 0.00 0.00 0.00 0.00 0.00 0.00 0.00 0.00 0.00 0.00 0.00 0.00 0.00 0.00 0.00 0.00 0.00 0.00 0.00 0.00 0.00 0.00 0.00 0.00 0.00 0.00 0.00 0.00 0.00 0.00 0.00 0.00 0.00
0.00 0.00 0.00 0.00 0.00 0.00 0.00 0.00 0.00 0.00 0.00 0.00 0.00 0.00 0.00 0.00 0.00 0.00 0.00 0.00 0.00 0.00 0.00 0.00 0.00 0.00 0.00 0.00 0.00 0.00 0.00 0.00 0.00 0.00 0.00 0.00 0.00 0.00 0.00 0.00 0.00 0.00 0.00 0.00
0.00 0.00 0.00 0.00 0.00 0.00 0.00 0.00 0.00 0.00 0.00 0.00 0.00 0.00 0.00 0.00 0.00 0.00 0.00 0.00 0.00 0.00 0.00 0.00 0.00 0.00 0.00 0.00 0.00 0.00 0.00 0.00 0.00 0.00 0.00 0.00 0.00 0.00 0.00 0.00 0.00 0.00 0.00 0.00
0.00 0.00 0.00 0.00 0.00 0.00 0.00 0.00 0.00 0.00 0.00 0.00 0.00 0.00 0.00 0.00 0.00 0.00 0.00 0.00 0.00 0.00 0.00 0.01 0.01 0.01 0.00 0.00 0.00 0.00 0.00 0.00 0.00 0.00 0.00 0.00 0.00 0.00 0.00 0.00 0.00 0.00 0.00 0.00
0.00 0.00 0.00 0.00 0.00 0.00 0.00 0.00 0.00 0.00 0.00 0.00 0.00 0.00 0.00 0.00 0.00 0.00 0.00 0.00 0.00 0.00 0.01 0.01 0.01 0.00 0.00 0.00 0.00 0.00 0.00 0.00 0.01 0.01 0.00 0.00 0.00 0.00 0.00 0.00 0.00 0.00 0.00 0.00
0.00 0.00 0.00 0.00 0.00 0.00 0.00 0.00 0.00 0.00 0.00 0.00 0.00 0.00 0.00 0.00 0.00 0.00 0.00 0.00 0.00 0.00 0.01 0.01 0.00 0.00 0.00 0.00 0.00 0.00 0.00 0.00 0.00 0.01 0.00 0.00 0.00 0.00 0.00 0.00 0.00 0.00 0.00 0.00
0.00 0.00 0.00 0.00 0.00 0.00 0.00 0.00 0.00 0.00 0.00 0.00 0.00 0.00 0.00 0.00 0.00 0.00 0.00 0.00 0.00 0.00 0.00 0.00 0.00 0.00 0.00 0.00 0.00 0.00 0.00 0.00 0.00 0.00 0.00 0.00 0.00 0.00 0.00 0.00 0.00 0.00 0.00 0.00
0.00 0.00 0.00 0.00 0.00 0.00 0.00 0.00 0.00 0.00 0.00 0.00 0.00 0.00 0.00 0.00 0.00 0.00 0.00 0.00 0.00 0.00 0.00 0.00 0.00 0.00 0.00 0.00 0.00 0.00 0.00 0.00 0.00 0.00 0.00 0.00 0.00 0.00 0.00 0.00 0.00 0.00 0.00 0.00
0.00 0.00 0.00 0.00 0.00 0.00 0.00 0.00 0.00 0.00 0.00 0.00 0.00 0.00 0.00 0.00 0.00 0.00 0.00 0.00 0.00 0.00 0.00 0.00 0.00 0.00 0.00 0.00 0.00 0.00 0.00 0.00 0.00 0.00 0.00 0.00 0.00 0.00 0.00 0.00 0.00 0.00 0.00 0.00
0.00 0.00 0.00 0.00 0.00 0.00 0.00 0.00 0.00 0.00 0.00 0.00 0.00 0.00 0.00 0.00 0.00 0.00 0.00 0.00 0.00 0.00 0.00 0.00 0.00 0.00 0.00 0.00 0.00 0.00 0.00 0.00 0.00 0.00 0.00 0.00 0.00 0.00 0.00 0.00 0.00 0.00 0.00 0.00
0.00 0.00 0.00 0.00 0.00 0.00 0.00 0.00 0.00 0.00 0.00 0.00 0.00 0.00 0.00 0.00 0.00 0.00 0.00 0.00 0.00 0.00 0.00 0.00 0.00 0.00 0.00 0.00 0.00 0.00 0.00 0.00 0.00 0.00 0.00 0.00 0.00 0.00 0.00 0.00 0.00 0.00 0.00 0.00
0.00 0.00 0.00 0.00 0.00 0.00 0.00 0.00 0.00 0.00 0.00 0.00 0.00 0.00 0.00 0.00 0.00 0.00 0.00 0.00 0.00 0.00 0.00 0.00 0.00 0.00 0.00 0.00 0.00 0.00 0.00 0.00 0.00 0.00 0.00 0.00 0.00 0.00 0.00 0.00 0.00 0.00 0.00 0.00
0.00 0.00 0.00 0.00 0.00 0.00 0.00 0.00 0.00 0.00 0.00 0.00 0.00 0.00 0.00 0.00 0.00 0.00 0.00 0.00 0.00 0.00 0.00 0.00 0.00 0.00 0.00 0.00 0.00 0.00 0.00 0.00 0.00 0.00 0.00 0.00 0.00 0.00 0.00 0.00 0.00 0.00 0.00 0.00
0.00 0.00 0.00 0.00 0.00 0.00 0.00 0.00 0.00 0.00 0.00 0.00 0.00 0.00 0.00 0.00 0.00 0.00 0.00 0.00 0.00 0.00 0.00 0.00 0.00 0.00 0.00 0.00 0.00 0.00 0.00 0.00 0.00 0.00 0.00 0.00 0.00 0.00 0.00 0.00 0.00 0.00 0.00 0.00
0.00 0.00 0.00 0.00 0.00 0.00 0.00 0.00 0.00 0.00 0.00 0.00 0.00 0.00 0.00 0.00 0.00 0.00 0.00 0.00 0.00 0.00 0.00 0.00 0.00 0.00 0.00 0.00 0.00 0.00 0.00 0.00 0.00 0.00 0.00 0.00 0.00 0.00 0.00 0.00 0.00 0.00 0.00 0.00
0.00 0.00 0.00 0.00 0.00 0.00 0.00 0.00 0.00 0.00 0.00 0.00 0.00 0.00 0.00 0.00 0.00 0.00 0.00 0.00 0.00 0.00 0.00 0.00 0.00 0.00 0.00 0.00 0.00 0.00 0.00 0.00 0.00 0.00 0.00 0.00 0.00 0.00 0.00 0.00 0.00 0.00 0.00 0.00
0.00 0.00 0.00 0.00 0.00 0.00 0.00 0.00 0.00 0.00 0.00 0.00 0.00 0.00 0.00 0.00 0.00 0.00 0.00 0.00 0.00 0.00 0.00 0.00 0.00 0.00 0.00 0.00 0.00 0.00 0.00 0.00 0.00 0.00 0.00 0.00 0.00 0.00 0.00 0.00 0.00 0.00 0.00 0.00
0.00 0.00 0.00 0.00 0.00 0.00 0.00 0.00 0.00 0.00 0.00 0.00 0.00 0.00 0.00 0.00 0.00 0.00 0.00 0.00 0.00 0.00 0.00 0.00 0.00 0.00 0.00 0.00 0.00 0.00 0.00 0.00 0.00 0.00 0.00 0.00 0.00 0.00 0.00 0.00 0.00 0.00 0.00 0.00
0.00 0.00 0.00 0.00 0.00 0.00 0.00 0.00 0.00 0.00 0.00 0.00 0.00 0.00 0.00 0.00 0.00 0.00 0.00 0.00 0.00 0.00 0.00 0.00 0.00 0.00 0.00 0.00 0.00 0.00 0.00 0.00 0.00 0.00 0.00 0.00 0.00 0.00 0.00 0.00 0.00 0.00 0.00 0.00
0.00 0.00 0.00 0.00 0.00 0.00 0.00 0.00 0.00 0.00 0.00 0.00 0.00 0.00 0.00 0.00 0.00 0.00 0.00 0.00 0.00 0.00 0.00 0.00 0.00 0.00 0.00 0.00 0.00 0.00 0.00 0.00 0.00 0.00 0.00 0.00 0.00 0.00 0.00 0.00 0.00 0.00 0.00 0.00
0.00 0.00 0.00 0.00 0.00 0.00 0.00 0.00 0.00 0.00 0.00 0.00 0.00 0.00 0.00 0.00 0.00 0.00 0.00 0.00 0.00 0.00 0.00 0.00 0.00 0.00 0.00 0.00 0.00 0.00 0.00 0.00 0.00 0.00 0.00 0.00 0.00 0.00 0.00 0.00 0.00 0.00 0.00 0.00
0.00 0.00 0.00 0.00 0.00 0.00 0.00 0.00 0.00 0.00 0.00 0.00 0.00 0.00 0.00 0.00 0.00 0.00 0.00 0.00 0.00 0.00 0.00 0.00 0.00 0.00 0.00 0.00 0.00 0.00 0.00 0.00 0.00 0.00 0.00 0.00 0.00 0.00 0.00 0.00 0.00 0.00 0.00 0.00
MSLP
1013.70 1014.10 1014.52 1014.73 1014.98 1015.36 1015.90 1015.21 1015.26 1016.26 1016.24 1015.82 1014.37 1013.87 1013.30 1013.20 1013.12 1013.36 1013.73 1013.58 1012.74 1011.72 1011.69 1011.94 1012.02 1012.20 1012.39 1012.72 1012.95 1012.87 1012.80 1012.99 1014.00 1014.35 1014.24 1013.60 1012.79 1012.34 1012.36 1012.33 1012.69 1012.12 1011.28 1009.88
1013.15 1013.66 1013.97 1014.28 1014.57 1014.84 1014.65 1014.73 1015.38 1016.26 1016.03 1014.83 1013.45 1013.34 1013.10 1012.79 1012.66 1012.66 1012.58 1012.78 1012.90 1012.56 1011.82 1011.94 1012.20 1012.47 1012.96 1012.92 1012.65 1012.89 1012.66 1013.10 1014.13 1014.79 1014.37 1013.66 1013.15 1012.82 1012.73 1012.55 1012.74 1012.33 1011.45 1009.95
1012.62 1013.16 1013.58 1013.76 1014.17 1014.51 1014.49 1014.24 1014.82 1015.65 1015.54 1014.59 1013.34 1012.63 1012.43 1012.36 1012.49 1012.42 1012.33 1012.14 1012.32 1012.15 1011.94 1012.10 1012.36 1012.71 1013.18 1013.19 1012.98 1013.19 1013.01 1012.96 1013.21 1013.17 1012.66 1012.35 1012.97 1012.76 1012.98 1013.12 1013.16 1012.49 1011.59 1010.74
1012.13 1012.71 1013.12 1013.24 1013.73 1014.12 1014.47 1013.76 1013.13 1013.38 1013.98 1013.60 1013.03 1012.62 1012.18 1012.01 1012.12 1012.31 1012.33 1012.18 1012.16 1011.96 1011.94 1012.18 1012.50 1012.98 1013.29 1013.43 1013.60 1013.32 1013.06 1013.29 1013.83 1013.63 1013.37 1013.14 1012.86 1012.57 1012.68 1012.98 1012.97 1012.51 1011.66 1010.79
1011.66 1012.23 1012.51 1012.70 1013.39 1013.98 1013.97 1013.09 1012.95 1013.47 1012.75 1012.75 1012.66 1012.51 1012.32 1012.16 1012.51 1012.45 1012.38 1012.20 1012.40 1012.30 1012.07 1012.66 1012.46 1012.99 1013.28 1013.22 1013.52 1013.33 1013.46 1013.85 1014.17 1014.22 1014.00 1013.78 1013.48 1013.12 1012.91 1012.83 1012.84 1012.61 1012.10 1011.40
1011.23 1011.71 1012.03 1012.29 1013.00 1013.12 1012.97 1013.55 1013.35 1012.60 1012.85 1012.56 1012.19 1012.15 1012.58 1012.79 1012.86 1013.29 1013.09 1012.83 1012.52 1012.90 1013.54 1013.41 1013.08 1013.22 1013.10 1013.24 1013.33 1013.51 1013.72 1014.07 1014.53 1014.33 1014.43 1014.07 1013.56 1012.89 1012.91 1013.01 1013.04 1013.02 1012.52 1012.16
1010.75 1011.33 1011.62 1011.98 1012.62 1012.69 1012.24 1012.69 1012.47 1012.02 1012.19 1012.27 1012.24 1012.92 1013.05 1013.19 1013.39 1013.16 1013.67 1013.42 1013.35 1014.68 1014.62 1014.18 1013.44 1013.32 1013.35 1013.42 1013.66 1013.73 1013.81 1014.31 1014.61 1014.67 1014.59 1014.12 1013.74 1013.57 1013.55 1013.54 1013.54 1013.60 1013.51 1013.42
1010.33 1011.02 1011.34 1011.77 1012.27 1012.79 1012.69 1013.14 1012.68 1011.65 1011.91 1012.73 1013.70 1013.61 1013.83 1013.85 1013.98 1013.99 1014.21 1014.71 1014.98 1014.89 1014.48 1013.88 1013.85 1013.82 1013.77 1013.91 1013.98 1013.99 1014.01 1014.09 1014.57 1014.65 1014.11 1013.54 1013.79 1013.82 1013.76 1013.67 1014.42 1014.76 1014.66 1014.52
1009.95 1010.73 1011.16 1011.69 1012.20 1012.81 1012.95 1013.32 1013.41 1012.36 1012.78 1014.41 1014.49 1014.44 1014.43 1014.17 1014.34 1014.60 1014.79 1015.03 1015.03 1014.64 1014.00 1013.81 1013.72 1013.76 1013.62 1014.12 1014.52 1014.74 1014.48 1014.35 1014.29 1014.50 1014.25 1013.65 1014.05 1014.26 1014.42 1014.40 1014.66 1015.57 1015.60 1015.43
1009.59 1010.25 1010.90 1011.63 1012.12 1012.54 1012.56 1013.46 1013.79 1012.88 1013.88 1016.09 1016.13 1015.44 1015.48 1015.72 1015.41 1014.86 1015.41 1015.42 1014.92 1014.70 1014.19 1014.24 1013.88 1013.92 1014.25 1014.11 1014.38 1014.75 1014.86 1014.82 1014.75 1014.72 1014.56 1014.21 1014.98 1014.82 1014.88 1015.34 1016.29 1016.25 1016.36 1016.26
1009.28 1009.93 1010.71 1011.39 1011.84 1012.28 1012.22 1013.81 1013.89 1013.14 1014.77 1017.11 1017.22 1017.10 1016.69 1016.81 1016.33 1015.43 1016.48 1016.32 1015.86 1015.19 1014.79 1014.64 1014.57 1014.31 1014.31 1014.29 1014.41 1014.38 1014.57 1014.66 1014.62 1014.68 1014.90 1015.10 1015.49 1015.20 1015.63 1016.42 1016.45 1016.74 1016.76 1016.73
1009.20 1009.71 1010.66 1011.31 1011.76 1012.21 1012.16 1013.41 1014.01 1013.45 1014.41 1017.59 1018.15 1018.41 1018.30 1018.22 1018.08 1017.21 1017.13 1016.90 1016.60 1016.62 1015.92 1015.52 1015.59 1015.22 1015.22 1014.83 1014.65 1015.25 1015.11 1014.99 1014.76 1014.98 1014.85 1015.51 1015.84 1016.02 1016.55 1016.90 1017.16 1017.10 1017.14 1016.96
1009.21 1009.92 1010.66 1011.22 1011.80 1012.19 1012.20 1013.18 1013.73 1013.88 1015.82 1017.65 1017.88 1018.59 1018.73 1018.70 1018.71 1018.60 1017.54 1017.87 1017.86 1017.58 1017.58 1016.57 1016.54 1016.34 1016.62 1015.50 1015.41 1015.82 1016.12 1016.33 1015.86 1015.75 1015.64 1015.92 1016.11 1016.27 1017.00 1017.44 1017.71 1017.63 1017.43 1017.20
1009.37 1010.04 1010.64 1011.29 1011.94 1012.22 1012.40 1013.09 1014.15 1013.92 1014.45 1016.28 1018.90 1019.06 1018.92 1019.27 1018.88 1018.74 1018.28 1018.12 1018.66 1018.33 1018.00 1017.35 1017.20 1017.14 1017.76 1016.91 1017.04 1016.64 1017.04 1017.01 1017.07 1016.61 1016.17 1016.59 1016.58 1016.89 1017.84 1018.26 1018.25 1017.84 1017.58 1017.55
1009.63 1010.27 1010.83 1011.55 1012.03 1012.56 1013.09 1013.88 1014.70 1014.68 1014.59 1015.99 1018.50 1019.17 1019.56 1019.38 1019.06 1018.89 1018.65 1018.42 1018.69 1018.44 1018.28 1018.08 1018.27 1018.59 1018.49 1018.04 1017.67 1016.94 1017.14 1017.19 1017.54 1017.10 1017.89 1018.32 1018.09 1018.27 1018.71 1018.76 1018.64 1018.54 1018.21 1017.59
1010.04 1010.63 1011.27 1011.72 1012.27 1012.77 1012.83 1014.23 1015.03 1015.00 1014.85 1015.56 1018.03 1019.71 1019.75 1019.72 1019.48 1019.35 1019.12 1019.01 1019.18 1019.12 1018.68 1018.89 1019.15 1019.59 1019.39 1018.34 1017.54 1017.49 1017.91 1018.34 1018.76 1018.80 1019.06 1019.14 1018.93 1018.90 1019.04 1019.16 1019.11 1018.85 1018.44 1017.91
1010.51 1010.98 1011.67 1012.07 1012.59 1013.28 1014.31 1015.41 1015.44 1015.37 1015.20 1015.47 1018.05 1019.44 1020.10 1020.08 1019.77 1019.60 1019.42 1019.46 1019.68 1019.50 1019.55 1019.42 1019.32 1019.63 1019.53 1018.63 1017.43 1017.38 1018.03 1018.51 1018.87 1019.51 1019.62 1019.45 1019.35 1019.49 1019.52 1019.33 1019.09 1018.86 1018.53 1018.12
1010.67 1011.19 1011.96 1012.46 1013.24 1014.45 1015.04 1015.91 1015.85 1015.60 1015.26 1015.65 1017.46 1019.55 1019.90 1020.21 1019.71 1019.72 1019.84 1019.63 1019.79 1020.02 1019.88 1019.97 1019.57 1019.65 1019.43 1018.17 1017.39 1017.84 1018.13 1018.68 1019.29 1019.72 1019.89 1019.95 1019.70 1019.55 1019.32 1019.44 1019.31 1018.88 1018.44 1017.98
1010.70 1011.54 1012.15 1012.80 1014.09 1014.90 1015.88 1016.27 1016.14 1015.85 1016.03 1016.36 1017.27 1018.67 1019.64 1020.10 1020.02 1020.01 1020.22 1020.08 1019.74 1020.40 1019.82 1019.81 1019.97 1018.91 1018.34 1017.38 1017.52 1017.80 1018.45 1018.83 1019.27 1019.53 1020.01 1019.83 1019.61 1019.53 1019.48 1019.29 1019.19 1019.02 1018.64 1018.21
1010.83 1011.49 1012.17 1014.49 1015.75 1015.92 1016.10 1016.46 1016.16 1016.17 1016.47 1016.77 1018.02 1019.04 1019.57 1019.97 1019.82 1020.01 1020.27 1020.41 1019.92 1020.02 1020.03 1020.14 1019.56 1017.93 1017.36 1017.65 1017.97 1018.39 1018.77 1019.09 1019.20 1019.46 1019.44 1019.45 1019.35 1019.29 1018.98 1018.76 1018.72 1018.71 1018.52 1018.14
1010.65 1011.96 1014.08 1015.80 1016.18 1016.13 1016.05 1016.39 1016.54 1016.76 1017.16 1017.62 1018.64 1018.94 1019.41 1020.34 1019.76 1019.79 1020.32 1020.44 1020.47 1020.10 1020.07 1019.87 1018.77 1017.81 1017.43 1017.79 1018.12 1018.61 1018.87 1019.06 1019.39 1019.47 1019.58 1019.57 1019.34 1019.04 1018.75 1018.41 1018.28 1018.20 1018.00 1017.76
1010.29 1011.50 1014.09 1015.68 1016.17 1016.04 1015.99 1016.88 1017.18 1017.01 1017.62 1018.38 1018.60 1019.33 1019.46 1020.14 1020.21 1019.90 1020.57 1020.30 1020.52 1020.10 1020.25 1019.80 1018.70 1018.24 1018.34 1018.37 1018.60 1018.72 1018.95 1019.25 1019.42 1019.64 1019.45 1019.36 1019.29 1019.10 1018.80 1018.40 1017.94 1017.62 1017.33 1017.10
1010.45 1011.49 1013.79 1014.71 1015.82 1015.78 1015.69 1016.51 1016.99 1017.29 1017.73 1018.54 1018.90 1019.42 1019.58 1020.27 1020.29 1020.32 1020.32 1020.04 1019.94 1020.16 1019.74 1018.79 1018.32 1018.56 1018.66 1018.65 1018.84 1018.87 1019.07 1019.32 1019.63 1019.64 1019.62 1019.44 1019.21 1018.95 1018.64 1018.18 1017.73 1017.21 1016.69 1016.22
1010.50 1011.99 1013.98 1014.32 1015.38 1015.30 1015.12 1015.38 1016.00 1017.05 1017.52 1018.12 1018.52 1019.20 1019.71 1020.18 1020.12 1020.29 1020.18 1019.79 1019.89 1019.54 1018.90 1018.20 1018.52 1018.70 1018.86 1018.98 1018.92 1019.07 1019.10 1019.20 1019.26 1019.36 1019.33 1019.16 1019.05 1018.76 1018.37 1017.98 1017.45 1016.90 1016.28 1015.74
1011.41 1012.23 1013.80 1014.57 1015.40 1015.73 1016.21 1016.54 1016.89 1017.65 1018.05 1018.28 1018.79 1019.38 1019.68 1020.08 1020.23 1020.12 1020.14 1019.79 1019.40 1018.72 1018.08 1018.31 1018.70 1018.80 1018.88 1018.96 1019.06 1019.22 1019.21 1019.14 1019.02 1018.90 1018.85 1018.72 1018.54 1018.29 1017.78 1017.36 1016.94 1016.49 1015.86 1015.37
1012.29 1013.61 1014.53 1015.18 1015.03 1016.23 1016.52 1017.14 1017.69 1018.16 1018.34 1018.60 1018.64 1019.26 1019.73 1020.11 1020.18 1020.23 1019.94 1019.74 1018.78 1018.32 1018.48 1018.60 1018.75 1018.76 1018.88 1019.18 1019.31 1019.14 1019.15 1019.21 1019.05 1018.77 1018.54 1018.39 1018.10 1017.75 1017.36 1016.77 1016.34 1015.74 1015.30 1014.86
1013.21 1014.02 1013.64 1013.67 1014.13 1015.33 1016.44 1016.91 1017.62 1018.22 1018.32 1018.34 1018.63 1019.12 1019.70 1020.23 1020.22 1019.98 1019.51 1018.98 1018.50 1018.70 1018.76 1018.77 1018.74 1018.92 1019.09 1019.15 1019.17 1019.03 1018.98 1018.93 1018.79 1018.50 1018.24 1017.98 1017.61 1017.44 1017.01 1016.30 1015.44 1015.18 1014.68 1014.21
Thickness
5574 5573 5570 5568 5564 5558 5552 5558 5555 5533 5523 5516 5523 5507 5511 5506 5510 5505 5499 5499 5508 5523 5522 5516 5519 5519 5522 5526 5525 5524 5533 5533 5521 5527 5528 5540 5548 5553 5556 5548 5544 5557 5559 5572
5572 5571 5570 5567 5563 5559 5561 5558 5550 5531 5525 5531 5534 5520 5514 5514 5514 5513 5513 5507 5506 5511 5521 5518 5520 5521 5520 5525 5530 5527 5536 5529 5515 5511 5526 5536 5539 5548 5552 5558 5549 5548 5552 5571
5571 5569 5568 5567 5562 5558 5558 5560 5546 5536 5527 5525 5532 5528 5520 5515 5514 5514 5516 5517 5516 5517 5519 5521 5518 5518 5518 5524 5528 5523 5533 5536 5536 5539 5545 5552 5537 5546 5546 5544 5535 5546 5553 5562
5568 5567 5566 5566 5561 5557 5556 5563 5569 5560 5537 5537 5533 5527 5523 5519 5517 5517 5517 5517 5517 5521 5519 5519 5517 5516 5516 5520 5519 5528 5534 5525 5521 5534 5537 5538 5541 5546 5548 5537 5542 5542 5556 5561
5566 5565 5566 5565 5560 5554 5557 5567 5564 5554 5560 5548 5537 5522 5523 5520 5512 5515 5514 5517 5516 5521 5524 5516 5518 5515 5516 5519 5521 5526 5529 5514 5521 5517 5528 5530 5530 5539 5544 5546 5546 5545 5550 5553
5564 5563 5565 5564 5558 5557 5562 5552 5553 5563 5549 5550 5546 5537 5524 5514 5510 5506 5510 5513 5519 5516 5509 5512 5517 5517 5522 5523 5522 5522 5523 5517 5513 5523 5519 5523 5529 5539 5541 5539 5540 5538 5537 5546
5561 5560 5562 5561 5557 5557 5563 5558 5562 5567 5559 5556 5550 5530 5522 5513 5505 5507 5503 5508 5514 5498 5498 5505 5515 5517 5519 5521 5519 5522 5519 5515 5514 5515 5514 5517 5524 5529 5528 5527 5531 5532 5532 5532
5558 5557 5559 5558 5555 5552 5554 5549 5558 5569 5562 5552 5533 5529 5519 5512 5503 5500 5498 5494 5492 5495 5501 5509 5506 5508 5511 5511 5514 5516 5518 5518 5509 5510 5520 5530 5521 5522 5524 5524 5515 5515 5517 5519
5554 5552 5554 5553 5552 5549 5547 5545 5544 5559 5554 5535 5530 5526 5522 5516 5507 5498 5494 5491 5491 5497 5506 5508 5505 5504 5512 5504 5503 5503 5508 5513 5514 5510 5510 5518 5515 5516 5515 5515 5515 5505 5505 5506
5551 5551 5551 5549 5548 5547 5547 5541 5538 5550 5535 5510 5511 5528 5518 5500 5499 5504 5488 5484 5493 5496 5503 5501 5506 5506 5505 5503 5499 5498 5499 5501 5500 5502 5504 5514 5500 5504 5507 5503 5500 5492 5491 5492
5547 5548 5547 5546 5546 5544 5546 5534 5534 5544 5523 5500 5499 5499 5503 5492 5493 5507 5477 5482 5485 5494 5496 5496 5498 5503 5505 5505 5504 5505 5503 5501 5501 5504 5498 5500 5491 5500 5498 5488 5486 5483 5483 5482
5541 5543 5541 5541 5542 5541 5541 5534 5529 5533 5527 5498 5491 5486 5484 5481 5474 5483 5474 5476 5474 5473 5485 5491 5486 5490 5491 5500 5502 5494 5497 5500 5503 5500 5501 5489 5487 5486 5480 5478 5473 5474 5472 5474
5536 5536 5536 5537 5537 5537 5538 5531 5527 5527 5510 5496 5495 5484 5480 5477 5471 5467 5482 5466 5461 5462 5459 5478 5478 5483 5475 5495 5496 5487 5481 5478 5488 5487 5489 5485 5482 5481 5473 5469 5463 5464 5466 5466
5528 5530 5531 5532 5531 5531 5532 5528 5518 5523 5525 5511 5479 5477 5476 5471 5471 5468 5467 5462 5452 5454 5456 5466 5470 5473 5454 5473 5468 5473 5467 5467 5464 5474 5481 5472 5472 5469 5456 5450 5450 5456 5458 5456
5520 5521 5524 5523 5525 5524 5521 5515 5510 5511 5521 5507 5481 5474 5468 5468 5469 5467 5465 5463 5457 5457 5457 5457 5455 5448 5450 5451 5453 5464 5460 5459 5459 5471 5452 5445 5448 5444 5437 5435 5436 5438 5440 5445
5513 5514 5514 5516 5517 5516 5519 5515 5503 5504 5508 5503 5486 5466 5464 5463 5464 5462 5462 5459 5455 5451 5454 5447 5441 5434 5439 5449 5458 5452 5445 5438 5433 5431 5427 5426 5430 5429 5426 5423 5422 5424 5427 5432
5505 5506 5505 5508 5508 5507 5505 5506 5499 5498 5500 5501 5476 5466 5458 5457 5459 5460 5461 5458 5450 5450 5444 5444 5443 5435 5433 5442 5455 5451 5440 5434 5429 5420 5417 5418 5420 5416 5415 5415 5416 5417 5419 5421
5498 5499 5498 5499 5498 5492 5491 5486 5487 5490 5496 5497 5478 5458 5461 5453 5460 5457 5455 5456 5451 5443 5444 5439 5441 5436 5434 5441 5454 5444 5438 5431 5423 5418 5415 5412 5413 5413 5413 5409 5407 5407 5409 5413
5493 5492 5493 5492 5486 5487 5480 5477 5480 5484 5488 5482 5482 5475 5466 5452 5453 5452 5447 5448 5454 5439 5447 5444 5435 5446 5439 5456 5450 5442 5433 5425 5417 5413 5406 5406 5405 5403 5400 5401 5399 5397 5398 5400
5488 5490 5493 5478 5468 5470 5472 5472 5480 5477 5477 5477 5463 5455 5456 5453 5453 5450 5445 5438 5449 5442 5445 5433 5437 5454 5456 5447 5440 5432 5425 5419 5416 5408 5402 5402 5398 5397 5397 5396 5393 5390 5388 5389
5486 5484 5469 5459 5460 5464 5469 5466 5473 5473 5472 5468 5455 5455 5451 5441 5451 5448 5439 5430 5429 5439 5437 5433 5446 5451 5448 5440 5433 5425 5419 5415 5409 5405 5400 5396 5395 5394 5393 5391 5388 5384 5382 5380
5487 5482 5464 5455 5457 5462 5468 5448 5455 5471 5468 5455 5459 5448 5448 5437 5436 5441 5429 5430 5421 5432 5419 5421 5427 5437 5428 5423 5417 5414 5410 5404 5398 5392 5390 5386 5382 5379 5377 5377 5376 5375 5372 5369
5479 5477 5462 5466 5455 5470 5483 5463 5459 5460 5451 5440 5442 5438 5440 5430 5429 5423 5425 5425 5430 5417 5421 5432 5431 5419 5415 5412 5406 5403 5394 5387 5380 5375 5372 5370 5367 5363 5360 5358 5355 5357 5359 5358
5478 5471 5460 5472 5468 5471 5475 5481 5471 5451 5448 5443 5443 5434 5432 5423 5423 5418 5417 5425 5417 5417 5422 5429 5415 5407 5403 5398 5395 5389 5383 5377 5370 5363 5358 5353 5347 5343 5337 5329 5329 5330 5333 5337
5465 5469 5468 5459 5438 5439 5436 5441 5444 5438 5439 5436 5431 5426 5429 5419 5415 5419 5413 5413 5411 5422 5425 5413 5402 5397 5392 5388 5382 5374 5368 5364 5360 5355 5348 5339 5328 5319 5316 5310 5305 5301 5302 5304
5452 5443 5438 5434 5446 5432 5436 5434 5428 5428 5429 5427 5430 5420 5417 5412 5413 5408 5405 5402 5406 5416 5403 5398 5392 5389 5383 5374 5367 5362 5356 5348 5343 5338 5330 5319 5309 5300 5293 5289 5285 5284 5284 5284
5446 5438 5447 5453 5456 5445 5437 5439 5432 5425 5427 5432 5426 5425 5416 5403 5402 5400 5408 5400 5408 5397 5390 5385 5381 5374 5368 5362 5355 5349 5342 5335 5327 5319 5308 5296 5288 5280 5274 5276 5282 5281 5280 5280